Weather Roundup
Issued by NWS

Home | Current Version | Previous Version | Text Only | Print | Product List | Glossary On
Versions: 1 2 3 4 5 6 7 8 9 10 11 12 13 14 15 16 17 18 19 20 21 22 23 24 25 26 27 28 29 30 31 32 33 34 35 36 37 38 39 40 41 42 43 44 45 46 47 48 49 50
000
NZUS93 KARX 190510
HRRWXR

CURRENT HOURLY OBSERVATIONS ACROSS
MUCH OF THE UPPER MISSISSIPPI VALLEY
NATIONAL WEATHER SERVICE LA CROSSE WI
1200 AM CDT SAT APR 19 2014


...SOUTHEAST MINNESOTA...


CITY           SKY/WX    TMP DP  RH WIND       PRES   REMARKS
ROCHESTER      PTCLDY    42  29  59 SE15      30.21R
ROCHESTER/MAYO FAIR      44  26  49 E9        30.21S
WINONA         PTCLDY    43  30  61 CALM      30.26R
AUSTIN         PTCLDY    43  34  70 SE12      30.18F
ALBERT LEA     MOCLDY    46  34  61 SE13      30.16S
DODGE CENTER   MOCLDY    45  32  61 SE14      30.19S
PRESTON        CLEAR     45  29  53 SE7       30.23R
OWATONNA       MOCLDY    45  30  57 SE15      30.17S
FARIBAULT      CLOUDY    48  27  43 E15       30.18S
$$

...ELSEWHERE IN MINNESOTA...


CITY           SKY/WX    TMP DP  RH WIND       PRES   REMARKS
MINNEAPOLIS    CLOUDY    45  27  49 E14       30.19F
INTNL FALLS    CLOUDY    37  19  48 SE12G22   30.23S WCI  29
DULUTH         CLOUDY    31  21  66 E16       30.28F WCI  20
RED WING       PTCLDY    46  27  46 E8        30.22S
REDWOOD FALLS  CLOUDY    48  34  58 SE17G25   30.05F
MANKATO        CLOUDY    46  34  61 SE17      30.14S
WORTHINGTON    CLOUDY    52  30  43 SE17G25   30.04S
FAIRMONT       CLOUDY    48  28  46 SE21      30.11S
$$

...SOUTHWEST WISCONSIN...


CITY           SKY/WX    TMP DP  RH WIND       PRES   REMARKS
LA CROSSE      CLEAR     45  27  49 S6        30.26S
PRAIRIE DU CHI PTCLDY    47  28  47 E12       30.26F
BOSCOBEL       CLEAR     47  28  47 VRB6      30.29S
LONE ROCK      CLEAR     43  34  70 E15       30.32R
PLATTEVILLE    CLEAR     42  35  78 E13       30.31R
FORT MC COY    CLEAR     39  25  56 E6        30.30S WCI  35
CAMP DOUGLAS   CLEAR     40  31  69 E12       30.31S WCI  33
VIROQUA        FAIR      42  28  58 E13       30.26S
WIS DELLS      CLEAR     37  30  75 E7        30.34R WCI  32
$$

...ELSEWHERE IN WISCONSIN...


CITY           SKY/WX    TMP DP  RH WIND       PRES   REMARKS
MILWAUKEE      CLEAR     35  28  75 NE6       30.40S WCI  30
MADISON        CLEAR     36  27  69 E9        30.37R WCI  29
GREEN BAY      CLEAR     33  26  75 E8        30.40F WCI  26
EAU CLAIRE     CLEAR     43  23  45 E12G17    30.27S
BLACK RVR FLS  FAIR      38  24  57 E6        30.29R WCI  34
MEDFORD        PTCLDY    37  22  56 E9        30.32R WCI  30
WAUSAU         PTCLDY    36  27  69 E12       30.33F WCI  28
WIS RAPIDS     CLEAR     38  29  70 E12G20    30.35S WCI  30
MARSHFIELD     CLEAR     39  30  70 E10       30.32R WCI  32
RICE LAKE      PTCLDY    40  23  51 E8        30.29S WCI  34
$$

...NORTHEAST IOWA...


CITY           SKY/WX    TMP DP  RH WIND       PRES   REMARKS
WATERLOO       CLEAR     46  32  58 SE9       30.21S
DUBUQUE        PTCLDY    45  33  63 E14       30.28R
DECORAH        MOCLDY    45  28  53 SE9G17    30.23S
MASON CITY     MOCLDY    45  33  63 SE13      30.18R
CHARLES CITY   CLEAR     46  30  53 SE15G22   30.20S
OELWEIN        CLEAR    N/A N/A N/A SE12      30.24S
$$

...ELSEWHERE IN IOWA...


CITY           SKY/WX    TMP DP  RH WIND       PRES   REMARKS
DES MOINES     MOCLDY    54  34  46 SE13      30.18S
IOWA CITY      MOCLDY    44  32  62 SE5       30.26S
FORT DODGE     CLOUDY    54  32  43 SE10      30.14S
MARSHALLTOWN   MOCLDY    50  30  46 SE12      30.20R
CEDAR RAPIDS   PTCLDY    45  31  58 E9        30.23S
$$

...NORTHERN ILLINOIS...


CITY           SKY/WX    TMP DP  RH WIND       PRES   REMARKS
CHICAGO-OHARE  CLEAR     38  25  59 VRB7      30.37S WCI  33
DUPAGE         CLEAR     37  27  67 NE9       30.36R WCI  30
CHICAGO-MIDWAY CLEAR     39  27  62 NE8       30.37S WCI  33
MOLINE         PTCLDY    47  36  65 E14       30.29R
ROCKFORD       CLEAR     38  27  64 E10G20    30.37S WCI  31
STERLING       CLEAR     39  30  70 E15       30.33R WCI  31
PEORIA         CLEAR     47  36  65 E16       30.30R
$$

NOTE: "FAIR" INDICATES FEW OR NO CLOUDS BELOW 12,000 FEET WITH NO
SIGNIFICANT WEATHER AND/OR OBSTRUCTIONS TO VISIBILITY. WIND
SPEEDS ARE IN MILES-PER-HOUR.



USA.gov is the U.S. government's official web portal to all federal, state and local government web resources and services.